16:36
Airports
History
Links
Donate
Help keep this website running!
PayPal
Bitcoin
Information on this page is community maintained and may be outdated or inaccurate and is intended for reference only or PC simulator navigating.
Always use approved charts for navigating.
UHMA
UGOLNY
UGOLNY (UHMA)
Anadyr, Chukotka Autonomous Okrug, Russian Federation (689501)
(C)
Lat/Lng:64° 44' 5.82" N / 177° 44' 29.34" E
64.73495 / 177.741484
Elevation:194'ft 59mMSL
ID / ICAO:UHMA
Runways:1
Longest:(01-19) 3,476.2m 11,405ft Concrete
Controlled:Yes
Distance To
Airport ID:
Airport Radio Frequencies
Tower: 124
Approach: 124
Nearby VORs <50NM
Nearby NDBs
METARUpdated 05-18-17 08:00 GMT
Altimeter: 29.83
Visibility: 6.2 statute miles
Wind: 3.9 knots (170°)
Temp: 5°c 41°f
Humidity: %

METAR: UHMA 180800Z 17002MPS 9999 FEW040 BKN150 05/00 Q1010 RMK QFE754/1005

(Powered by phpweather)
Runway 01 / 19
Dimensions:3476.2 x 60.1m 11405' x 197'ft
Surface:Concrete
Edge Lights:Low intensity
Runway 01 [A]Runway 19 [B]
Heading:014°TH 194°TH
Lat:
Lng:
64° 43' 11.23"N
177° 43' 55.89"E
64° 45' 0.41"N
177° 45' 2.79"E
ALS:ALSF-IICalvert
TDZ:Yes
User Notes and Comments
Google Map
Nearby Airports
(C) Provideniya Bay 268.7 NM
UHMD E 95°
(U) Gambell 322.5 NM
PAGM (WX) E 101°
4 Savoonga 360.4 NM
PASA (WX) E 101°
(U) PEVEK 397.0 NM
UHMP NNW 331°
(U) Ust Pakhachi 397.0 NM
UHPA SW 223°
4 Wales 414.4 NM
PAIW E 81°
(R) Tin City Lrrs 419.2 NM
PATC (WX) E 82°
VFR Chart
Flight Planning at SkyVector.com